Location: Peach Mountain Observatory
(42.3967°N, 83.9367°W)
Time: 21:02:47
(UTC-05:00)

Transit 2A - All Passes

Search period start: 28 January 2020 00:00
Search period end: 07 February 2020 00:00
Orbit: 601 x 958 km, 66.7° (Epoch: 28 January)

Date Brightness Start Highest point End Pass type
(mag) Time Alt. Az. Time Alt. Az. Time Alt. Az.
28 Jan - 03:10:55 10° N 03:14:14 18° NE 03:17:46 10° E night (unlit)
28 Jan - 04:52:58 10° NW 04:57:48 72° WSW 05:03:09 10° SSE visible
28 Jan - 19:34:06 10° SSW 19:38:31 86° ESE 19:42:52 10° NNE visible
28 Jan - 21:20:11 10° WNW 21:22:17 13° NW 21:24:22 10° NNW visible
29 Jan - 02:37:26 10° N 02:39:52 14° NE 02:42:21 10° ENE night (unlit)
29 Jan - 04:18:50 10° NNW 04:23:41 79° ENE 04:29:03 10° SSE visible
29 Jan - 06:03:54 10° WNW 06:06:21 14° WSW 06:08:54 10° SW visible
29 Jan - 19:00:08 10° SSW 19:04:26 54° ESE 19:08:40 10° NE visible
29 Jan - 20:44:52 10° W 20:47:53 18° NW 20:50:56 10° N visible
30 Jan - 03:44:47 10° NNW 03:49:32 54° NE 03:54:45 10° SE night (unlit)
30 Jan - 05:28:44 10° WNW 05:32:24 21° WSW 05:36:18 10° SSW visible
30 Jan - 18:26:25 10° S 18:30:24 34° ESE 18:34:20 10° NE visible
30 Jan - 20:09:55 10° WSW 20:13:34 25° NW 20:17:13 10° N visible
31 Jan - 03:10:50 10° NNW 03:15:20 38° NE 03:20:14 10° ESE night (unlit)
31 Jan - 04:54:05 10° NW 04:58:24 30° WSW 05:03:05 10° S night (unlit)
31 Jan - 17:53:01 10° SSE 17:56:25 22° ESE 17:59:46 10° ENE daylight
31 Jan - 19:35:15 10° WSW 19:39:18 36° NW 19:43:21 10° NNE visible
01 Feb - 02:36:58 10° N 02:41:05 27° NE 02:45:30 10° ESE night (unlit)
01 Feb - 04:19:40 10° NW 04:24:21 44° WSW 04:29:30 10° S night (unlit)
01 Feb - 17:20:09 10° SE 17:22:28 14° ESE 17:24:46 10° ENE daylight
01 Feb - 19:00:48 10° SW 19:05:06 56° NW 19:09:23 10° NNE visible
02 Feb - 02:03:13 10° N 02:06:46 20° NE 02:10:32 10° E night (unlit)
02 Feb - 03:45:24 10° NW 03:50:16 66° WSW 03:55:40 10° SSE night (unlit)
02 Feb - 18:26:34 10° SSW 18:30:57 87° NW 18:35:19 10° NNE visible
02 Feb - 20:12:58 10° WNW 20:14:48 12° NW 20:16:37 10° NNW visible
03 Feb - 01:29:39 10° N 01:32:24 15° NE 01:35:15 10° ENE night (unlit)
03 Feb - 03:11:15 10° NNW 03:16:10 85° ENE 03:21:37 10° SSE night (unlit)
03 Feb - 04:56:38 10° W 04:58:48 13° WSW 05:01:02 10° SW night (unlit)
03 Feb - 17:52:33 10° SSW 17:56:52 60° ESE 18:01:09 10° NE daylight
03 Feb - 19:37:32 10° W 19:40:23 17° NW 19:43:17 10° N visible
04 Feb - 00:56:39 10° NNE 00:57:57 11° NE 00:59:16 10° NE night (unlit)
04 Feb - 02:37:11 10° NNW 02:42:01 59° ENE 02:47:20 10° SE night (unlit)
04 Feb - 04:21:18 10° WNW 04:24:51 19° WSW 04:28:37 10° SSW night (unlit)
04 Feb - 17:18:46 10° S 17:22:49 37° ESE 17:26:50 10° NE daylight
04 Feb - 19:02:31 10° WSW 19:06:02 24° NW 19:09:36 10° N visible
05 Feb - 02:03:12 10° NNW 02:07:49 41° NE 02:12:53 10° SE night (unlit)
05 Feb - 03:46:36 10° NW 03:50:51 28° WSW 03:55:29 10° S night (unlit)
05 Feb - 16:45:17 10° SSE 16:48:49 24° ESE 16:52:20 10° ENE daylight
05 Feb - 18:27:48 10° WSW 18:31:46 34° NW 18:35:46 10° NNE visible
06 Feb - 01:29:19 10° N 01:33:35 29° NE 01:38:12 10° ESE night (unlit)
06 Feb - 03:12:08 10° NW 03:16:50 41° WSW 03:21:58 10° S night (unlit)
06 Feb - 16:12:18 10° SE 16:14:53 15° ESE 16:17:27 10° ENE daylight
06 Feb - 17:53:18 10° SW 17:57:33 51° NW 18:01:49 10° NNE daylight
